G3ZSS Weather Reports


time (UTC)temp
C
wind
direction
speed
KPH
gust
KPH
rain 1hr
cm
rain 24hr
cm
rain mn
cm
humidity
%
barometer
mb
20260507083004 13 192 1.6 8.0 0.00 0.00 0.00 72 1016.0
20260507082004 13 206 0.0 8.0 0.00 0.00 0.00 74 1016.0
20260507081004 13 85 1.6 8.0 0.00 0.00 0.00 74 1015.9
20260507080003 13 200 1.6 8.0 0.00 0.00 0.00 76 1015.9
20260507075003 12 34 3.2 8.0 0.00 0.00 0.00 76 1015.8
20260507074004 12 101 0.0 8.0 0.00 0.00 0.00 78 1015.9
20260507073004 12 138 1.6 4.8 0.00 0.00 0.00 79 1015.8
20260507072003 12 57 0.0 3.2 0.00 0.00 0.00 82 1015.8
20260507070006 10 325 0.0 0.0 0.00 0.00 0.00 91 1015.7
20260507065004 9 325 0.0 0.0 0.00 0.00 0.00 92 1015.6
20260507064003 8 325 0.0 3.2 0.00 0.00 0.00 91 1015.7
20260507062004 7 325 0.0 0.0 0.00 0.00 0.00 92 1015.6
20260507061003 6 325 0.0 0.0 0.00 0.00 0.00 92 1015.5
20260507060004 6 325 0.0 0.0 0.00 0.00 0.00 92 1015.5
20260507055003 5 325 0.0 3.2 0.00 0.00 0.00 91 1015.4
20260507054004 5 253 0.0 3.2 0.00 0.00 0.00 91 1015.4
20260507053005 5 36 1.6 4.8 0.00 0.00 0.00 91 1015.3
20260507052004 5 298 1.6 3.2 0.00 0.00 0.00 91 1015.2
20260507051003 5 329 1.6 3.2 0.00 0.00 0.00 91 1015.2
20260507050004 5 301 0.0 4.8 0.00 0.00 0.00 90 1015.1
20260507045004 5 311 3.2 4.8 0.00 0.00 0.00 90 1015.1
20260507044003 5 311 3.2 4.8 0.00 0.00 0.00 90 1015.1
20260507043004 5 306 3.2 4.8 0.00 0.00 0.00 90 1015.1
20260507042004 5 320 3.2 8.0 0.00 0.00 0.00 90 1015.0
20260507041003 5 307 3.2 4.8 0.00 0.00 0.00 90 1015.1
20260507035003 5 320 3.2 4.8 0.00 0.00 0.00 90 1015.1
20260507034004 5 321 3.2 4.8 0.00 0.00 0.00 90 1015.0
20260507033004 5 306 3.2 4.8 0.00 0.00 0.00 90 1015.0
20260507032003 5 303 3.2 4.8 0.00 0.00 0.00 90 1014.9
20260507031004 5 300 3.2 4.8 0.00 0.00 0.00 89 1014.9
20260507030004 5 317 3.2 4.8 0.00 0.00 0.00 89 1014.9
20260507025003 5 318 3.2 4.8 0.00 0.00 0.00 89 1014.9
20260507024004 5 308 1.6 3.2 0.00 0.00 0.00 89 1014.8
20260507023004 5 309 3.2 4.8 0.00 0.00 0.00 89 1014.8
20260507022003 5 311 3.2 4.8 0.00 0.00 0.00 89 1014.8
20260507021004 5 304 1.6 4.8 0.00 0.00 0.00 88 1014.7
20260507020004 5 302 3.2 4.8 0.00 0.00 0.00 88 1014.7
20260507015003 5 307 3.2 4.8 0.00 0.00 0.00 88 1014.6
20260507013003 5 288 3.2 4.8 0.00 0.00 0.00 88 1014.6
20260507012004 5 295 3.2 4.8 0.00 0.00 0.00 88 1014.7
20260507011004 6 311 3.2 4.8 0.00 0.00 0.00 87 1014.7
20260507010004 6 303 1.6 4.8 0.00 0.00 0.00 87 1014.8
20260507005004 6 298 1.6 4.8 0.00 0.00 0.00 87 1014.7
20260507004003 6 309 1.6 4.8 0.00 0.00 0.00 86 1014.7
20260507003004 6 309 1.6 4.8 0.00 0.00 0.00 86 1014.7
20260507002003 6 300 1.6 4.8 0.00 0.00 0.00 85 1014.8
20260507001004 7 320 1.6 4.8 0.00 0.00 0.00 85 1014.8
20260507000004 7 320 1.6 4.8 0.00 0.00 0.00 85 1014.8
20260506234004 7 316 1.6 3.2 0.00 0.00 0.00 84 1014.7
20260506233004 7 316 1.6 4.8 0.00 0.00 0.00 83 1014.7
20260506232004 7 314 1.6 4.8 0.00 0.00 0.00 82 1014.6
20260506231004 8 300 1.6 3.2 0.00 0.00 0.00 81 1014.5
20260506230003 8 300 1.6 3.2 0.00 0.00 0.00 81 1014.5
20260506224004 8 300 1.6 4.8 0.00 0.00 0.00 79 1014.5
20260506221004 10 300 0.0 0.0 0.00 0.00 0.00 76 1014.4
20260506220003 10 300 0.0 0.0 0.00 0.00 0.00 76 1014.2
20260506215004 10 300 0.0 3.2 0.00 0.00 0.00 76 1014.2
20260506213004 11 300 0.0 0.0 0.00 0.00 0.00 76 1014.3
20260506212003 11 300 0.0 0.0 0.00 0.00 0.00 76 1014.2
20260506211004 11 300 0.0 0.0 0.00 0.00 0.00 76 1014.2
20260506210004 11 300 0.0 0.0 0.00 0.00 0.00 74 1014.1
20260506205003 11 300 0.0 0.0 0.00 0.00 0.00 73 1014.1
20260506204004 11 300 0.0 0.0 0.00 0.00 0.00 72 1014.0
20260506203003 11 300 0.0 0.0 0.00 0.00 0.00 71 1013.9
20260506202004 12 300 0.0 0.0 0.00 0.00 0.00 71 1013.9
20260506201003 12 300 0.0 0.0 0.00 0.00 0.00 71 1013.8
20260506200004 12 300 0.0 0.0 0.00 0.00 0.00 70 1013.7
20260506195003 12 300 0.0 0.0 0.00 0.00 0.00 69 1013.6
20260506194004 12 300 0.0 0.0 0.00 0.00 0.00 68 1013.5
20260506193004 12 300 0.0 0.0 0.00 0.00 0.00 67 1013.4
20260506192004 12 300 0.0 0.0 0.00 0.00 0.00 66 1013.4
20260506191003 12 300 0.0 0.0 0.00 0.00 0.00 66 1013.3
20260506184004 13 300 0.0 1.6 0.00 0.00 0.00 65 1013.1
20260506180005 13 300 0.0 8.0 0.00 0.00 0.00 59 1012.7
20260506174004 14 289 3.2 4.8 0.00 0.00 0.00 59 1012.5
20260506172004 14 317 1.6 9.7 0.00 0.00 0.00 58 1012.5
20260506171003 15 302 3.2 9.7 0.00 0.00 0.00 58 1012.4
20260506165003 15 317 4.8 12.9 0.00 0.00 0.00 54 1012.4
20260506164004 15 293 3.2 9.7 0.00 0.00 0.00 53 1012.3
20260506163004 15 316 4.8 12.9 0.00 0.00 0.00 53 1012.3
20260506162004 15 317 6.4 9.7 0.00 0.00 0.00 52 1012.3
20260506161003 15 308 4.8 11.3 0.00 0.00 0.00 52 1012.3
20260506160004 15 296 4.8 11.3 0.00 0.00 0.00 51 1012.3
20260506155004 15 293 4.8 14.5 0.00 0.00 0.00 52 1012.4
20260506154004 15 301 3.2 8.0 0.00 0.00 0.00 53 1012.3
20260506152004 15 314 4.8 14.5 0.00 0.00 0.00 50 1012.3
20260506151003 15 312 4.8 12.9 0.00 0.00 0.00 49 1012.3
20260506150004 15 305 4.8 11.3 0.00 0.00 0.00 50 1012.4
20260506145003 15 352 4.8 8.0 0.00 0.00 0.00 51 1012.4
20260506144004 15 289 4.8 14.5 0.00 0.00 0.00 50 1012.4
20260506143003 15 309 8.0 14.5 0.00 0.00 0.00 49 1012.4
20260506142004 15 298 8.0 16.1 0.00 0.00 0.00 48 1012.4
20260506140003 16 313 4.8 14.5 0.00 0.00 0.00 48 1012.3
20260506135004 16 306 6.4 14.5 0.00 0.00 0.00 49 1012.3
20260506134004 16 315 4.8 12.9 0.00 0.00 0.00 50 1012.5
20260506132003 16 306 3.2 16.1 0.00 0.00 0.00 51 1012.4
20260506131004 16 313 3.2 12.9 0.00 0.00 0.00 52 1012.4
20260506130003 16 292 4.8 14.5 0.00 0.00 0.00 51 1012.4
20260506125004 16 290 6.4 16.1 0.00 0.00 0.00 49 1012.4
20260506124004 16 298 6.4 14.5 0.00 0.00 0.00 50 1012.4
20260506123004 16 296 9.7 24.1 0.00 0.00 0.00 50 1012.5
20260506122004 16 280 4.8 16.1 0.00 0.00 0.00 49 1012.5
20260506121003 16 304 8.0 16.1 0.00 0.00 0.00 50 1012.6
20260506120004 16 300 4.8 14.5 0.00 0.00 0.00 50 1012.6
20260506115004 16 277 9.7 19.3 0.00 0.00 0.00 50 1012.6
20260506114003 15 305 6.4 14.5 0.00 0.00 0.00 52 1012.6
20260506113004 15 305 8.0 16.1 0.00 0.00 0.00 51 1012.7
20260506112004 16 314 6.4 14.5 0.00 0.00 0.00 51 1012.7
20260506111003 16 318 4.8 12.9 0.00 0.00 0.00 52 1012.8
20260506110003 15 293 3.2 14.5 0.00 0.00 0.00 53 1012.7
20260506105004 15 342 3.2 19.3 0.00 0.00 0.00 56 1012.7
20260506104003 15 298 3.2 14.5 0.00 0.00 0.00 57 1012.8
20260506103004 15 298 8.0 14.5 0.00 0.00 0.00 55 1012.7
20260506102004 15 285 6.4 19.3 0.00 0.00 0.00 55 1012.8
20260506101003 15 304 3.2 11.3 0.00 0.00 0.00 58 1012.8
20260506100004 15 294 3.2 12.9 0.00 0.00 0.00 60 1012.9
20260506095003 14 296 4.8 11.3 0.00 0.00 0.00 59 1012.9
20260506093004 13 292 4.8 12.9 0.00 0.00 0.00 65 1013.0
20260506092003 13 316 3.2 9.7 0.00 0.00 0.00 64 1013.0
20260506090003 13 305 4.8 11.3 0.00 0.00 0.00 64 1013.0
20260506085004 13 305 3.2 9.7 0.00 0.00 0.00 67 1013.0